Regional Weather Roundup
Issued by NWS Midland/Odessa, TX

Home | Current Version | Previous Version | Text Only | Print | Product List | Glossary On
Versions: 1 2 3 4 5 6 7 8 9 10 11 12 13 14 15 16 17 18 19 20 21 22 23 24 25 26 27 28 29 30 31 32 33 34 35 36 37 38 39 40 41 42 43 44 45 46 47 48 49 50
000
ASUS44 KMAF 291710
RWRMAF
MIDLAND AREA WEATHER ROUNDUP
NATIONAL WEATHER SERVICE MIDLAND TX
1200 PM CDT SUN MAR 29 2015

...IN SOUTHWEST TEXAS AND SOUTHEAST NEW MEXICO...

CITY           SKY/WX    TMP DP  RH WIND       PRES   REMARKS
ALPINE         SUNNY     83  14   7 N12       30.25R
ANDREWS        FAIR      85  31  14 N16       30.09R
ARTESIA        SUNNY     77  34  20 NE9       30.14S
BIG SPRING     SUNNY     79  41  25 W8        30.08R
CARLSBAD       SUNNY     79  27  14 NE6       30.12S
DRYDEN           N/A     75  45  34 CALM      30.08F
FORT STOCKTON  SUNNY     80  22  11 W13       30.13S
GUAD PASS      SUNNY     71  17  12 SW13      30.27S
HOBBS          SUNNY     82  25  12 NW21      30.12S
MARFA          SUNNY     81  19  10 NW17G24   30.25S
MIDLAND AIRPK  SUNNY     80  39  22 W6        30.07S
MIDLAND INTL   SUNNY     80  41  24 NW6       30.07R
ODESSA         SUNNY     82  34  17 NW8       30.08S
PECOS          SUNNY     79  33  19 W9        30.10F
PRESIDIO       FAIR      75  32  21 S3        30.17R
SEMINOLE       SUNNY     83  27  12 N16G26    30.10R
SNYDER         SUNNY     75  44  32 SW13      30.03F
WINK           SUNNY     85  26  11 NW12      30.07F
$$
...OTHER STATIONS IN TEXAS...

CITY           SKY/WX    TMP DP  RH WIND       PRES   REMARKS
ABILENE        SUNNY     77  49  37 SW13      30.02R
AMARILLO       SUNNY     69  35  28 N24G38    30.17R
AUSTIN         SUNNY     74  58  57 S15G30    30.11F
BROWNSVILLE    SUNNY     79  63  57 S25G33    30.17S
CORPUS CHRISTI MOSUNNY   76  64  66 S24G32    30.14S
DALLAS FTW     SUNNY     73  52  47 S18       30.02F
DEL RIO        SUNNY     71  54  54 SE8       30.08F
EL PASO        MOSUNNY   73  15  11 S7        30.20S
HOUSTON INT    MOSUNNY   75  61  61 S14       30.18F
LUBBOCK        SUNNY     80  30  16 N25G40    30.06S
SAN ANGELO     SUNNY     79  49  34 SW17G23   30.05R
SAN ANTONIO    SUNNY     73  59  61 S10       30.14S
WACO           SUNNY     73  59  61 S18       30.08S
WICHITA FALLS  NOT AVBL
$$
...OTHER LOCATIONS IN NEW MEXICO...

CITY           SKY/WX    TMP DP  RH WIND       PRES   REMARKS
ALAMAGORDO     MOSUNNY   77  14   9 N16G22    30.20S
ALBUQUERQUE    PTSUNNY   66  18  15 SW6       30.28R
CANNON AFB     SUNNY     73  25  16 NE28G33   30.18R
CLOVIS         SUNNY     73  27  17 NE26G35   30.19S
HOLLOMAN AFB   MOSUNNY   78   9   7 N9        30.18F
ROSWELL        SUNNY     83  23  11 N14G22    30.13S
RUIDOSO        SUNNY     68  16  13 NW8       30.35R
SANTA FE       SUNNY     65  17  15 N10       30.28F
TRUTH OR CONSE SUNNY     74  15  10 VRB3      30.23F
TUCUMCARI      SUNNY     73  27  18 NE26G33   30.20R
$$



USA.gov is the U.S. government's official web portal to all federal, state and local government web resources and services.